Regional Weather Roundup
Issued by NWS

Home | Current Version | Previous Version | Text Only | Print | Product List | Glossary On
Versions: 1 2 3 4 5 6 7 8 9 10 11 12 13 14 15 16 17 18 19 20 21 22 23 24 25 26 27 28 29 30 31 32 33 34 35 36 37 38 39 40 41 42 43 44 45 46 47 48 49 50
000
ASUS43 KLMK 010510
RWRKY
KENTUCKY REGIONAL WEATHER ROUNDUP
NATIONAL WEATHER SERVICE LOUISVILLE KY
100 AM EDT WED JUN 01 2016

NOTE "FAIR" INDICATES FEW OR NO CLOUDS BELOW 12,000 FEET
WITH NO SIGNIFICANT WEATHER AND/OR OBSTRUCTIONS TO VISIBILITY.

KYZ001>023-026-027-061>063-070>075-010600-
WESTERN AND SOUTH CENTRAL KENTUCKY

CITY           SKY/WX    TMP DP  RH WIND       PRES   REMARKS
PADUCAH        MOCLDY    71  66  84 CALM      29.92S
HENDERSON      CLOUDY    75  63  64 CALM      29.93S
OWENSBORO      CLOUDY    75  64  68 CALM      29.94F
HOPKINSVILLE   PTCLDY    74  64  70 E2        29.93F
BOWLING GREEN  CLEAR     70  65  84 CALM      29.95F
GLASGOW        CLEAR     67  66  94 CALM      29.96F
$$

KYZ024-025-028>034-038-045-046-053-010600-
NORTH CENTRAL KENTUCKY

CITY           SKY/WX    TMP DP  RH WIND       PRES   REMARKS
LOUISVILLE/SDF PTCLDY    76  58  53 CALM      29.96S
LOUISVILLE/LOU CLEAR     71  60  68 CALM      29.97S
FORT KNOX      CLEAR     64  60  86 CALM      29.96S
$$

KYZ035>037-039>044-047>052-055>060-089>105-010600-
NORTHEAST KENTUCKY

CITY           SKY/WX    TMP DP  RH WIND       PRES   REMARKS
LEXINGTON      CLEAR     69  60  73 E3        29.98F
COVINGTON      CLEAR     67  61  81 CALM      29.99S
FRANKFORT      PTCLDY    64  59  83 CALM      29.97F
$$

KYZ054-064>069-076>088-106>120-010600-
SOUTHEAST KENTUCKY

CITY           SKY/WX    TMP DP  RH WIND       PRES   REMARKS
JACKSON        PTCLDY    71  56  58 CALM      30.01S
LONDON         CLEAR     66  61  84 CALM      30.00R
SOMERSET       CLEAR     63  63 100 CALM      29.99F
MIDDLESBORO    CLEAR     64  63  94 CALM      30.01S
MONTICELLO     CLEAR     64  63  96 W9        30.00S
$$




USA.gov is the U.S. government's official web portal to all federal, state and local government web resources and services.